timestamp,wind_dir_avg,wind_spd_avg,wind_spd_max_dir,wind_spd_gust,battery_voltage,lat,long
2022-04-23 00:04:01+00:00,211.0,7.73,213.0,8.47,12.49,47.59359,-54.27349
2022-04-23 00:14:01+00:00,202.0,6.02,203.0,6.9,12.41,47.59359,-54.27349
2022-04-23 00:24:01+00:00,196.0,6.36,203.0,7.43,12.41,47.59359,-54.27349
2022-04-23 00:34:01+00:00,190.0,6.6,193.0,7.32,12.41,47.59359,-54.27349
2022-04-23 00:44:01+00:00,191.0,6.16,190.0,6.85,12.41,47.59359,-54.27349
2022-04-23 00:54:01+00:00,190.0,5.99,190.0,6.51,12.41,47.59359,-54.27349
2022-04-23 01:04:01+00:00,196.0,6.82,197.0,7.46,12.41,47.59359,-54.27349
2022-04-23 01:14:01+00:00,202.0,6.61,203.0,7.57,12.33,47.59359,-54.27349
2022-04-23 01:24:01+00:00,207.0,6.29,205.0,7.21,12.33,47.59359,-54.27349
2022-04-23 01:34:01+00:00,205.0,7.53,207.0,8.71,12.33,47.59359,-54.27349
2022-04-23 01:44:01+00:00,210.0,8.25,218.0,9.2,12.33,47.59359,-54.27349
2022-04-23 01:54:01+00:00,208.0,7.53,209.0,8.25,12.33,47.59359,-54.27349
2022-04-23 02:04:01+00:00,197.0,7.95,195.0,9.39,12.33,47.59359,-54.27349
2022-04-23 02:14:01+00:00,191.0,8.5,191.0,9.65,12.41,47.59359,-54.27349
2022-04-23 02:24:01+00:00,187.0,7.86,189.0,8.59,12.41,47.59359,-54.27349
2022-04-23 02:34:01+00:00,197.0,9.43,196.0,10.48,12.41,47.59359,-54.27349
2022-04-23 02:44:01+00:00,193.0,8.55,195.0,9.52,12.41,47.59359,-54.27349
2022-04-23 02:54:01+00:00,183.0,7.49,183.0,8.34,12.41,47.59359,-54.27349
2022-04-23 03:04:01+00:00,183.0,7.86,184.0,8.46,12.41,47.59359,-54.27349
2022-04-23 03:14:01+00:00,189.0,7.72,188.0,8.47,12.33,47.59359,-54.27349
2022-04-23 03:24:01+00:00,181.0,6.5,185.0,7.41,12.33,47.59359,-54.27349
2022-04-23 03:34:01+00:00,177.0,8.49,176.0,9.31,12.33,47.59359,-54.27349
2022-04-23 03:44:01+00:00,180.0,8.04,182.0,9.37,12.33,47.59359,-54.27349
2022-04-23 03:54:01+00:00,183.0,8.07,180.0,9.03,12.33,47.59359,-54.27349
2022-04-23 04:04:01+00:00,189.0,7.22,194.0,8.12,12.33,47.59359,-54.27349
2022-04-23 04:14:01+00:00,186.0,7.1,193.0,8.3,12.25,47.59359,-54.27349
2022-04-23 04:24:01+00:00,178.0,6.14,179.0,7.4,12.25,47.59359,-54.27349
2022-04-23 04:34:01+00:00,178.0,6.36,181.0,7.31,12.25,47.59359,-54.27349
2022-04-23 04:44:01+00:00,182.0,7.77,183.0,9.01,12.25,47.59359,-54.27349
2022-04-23 04:54:01+00:00,169.0,6.71,173.0,7.74,12.25,47.59359,-54.27349
2022-04-23 05:04:01+00:00,174.0,7.01,174.0,8.24,12.25,47.59359,-54.27349
2022-04-23 05:14:01+00:00,175.0,6.26,176.0,7.03,12.25,47.59359,-54.27349
2022-04-23 05:24:01+00:00,172.0,4.95,176.0,6.03,12.25,47.59359,-54.27349
2022-04-23 05:34:01+00:00,165.0,4.23,165.0,4.81,12.25,47.59359,-54.27349
2022-04-23 05:44:01+00:00,175.0,3.99,172.0,4.5,12.25,47.59359,-54.27349
2022-04-23 05:54:01+00:00,177.0,5.11,181.0,5.89,12.25,47.59359,-54.27349
2022-04-23 06:04:01+00:00,178.0,3.84,181.0,4.3,12.25,47.59359,-54.27349
2022-04-23 06:14:00+00:00,175.0,3.98,176.0,4.68,12.25,47.59359,-54.27349
2022-04-23 06:24:00+00:00,186.0,5.2,185.0,6.25,12.25,47.59359,-54.27349
2022-04-23 06:34:00+00:00,182.0,5.78,185.0,6.35,12.25,47.59359,-54.27349
2022-04-23 06:44:00+00:00,175.0,6.45,176.0,7.28,12.25,47.59359,-54.27349
2022-04-23 06:54:00+00:00,172.0,7.05,173.0,7.53,12.25,47.59359,-54.27349
2022-04-23 07:04:00+00:00,171.0,6.89,173.0,7.32,12.25,47.59359,-54.27349
2022-04-23 07:14:01+00:00,176.0,6.58,174.0,7.33,12.17,47.59359,-54.27349
2022-04-23 07:24:01+00:00,177.0,7.06,180.0,8.09,12.17,47.59359,-54.27349
2022-04-23 07:34:01+00:00,179.0,5.94,181.0,6.99,12.17,47.59359,-54.27349
2022-04-23 07:44:01+00:00,166.0,6.77,169.0,7.55,12.17,47.59359,-54.27349
2022-04-23 07:54:01+00:00,160.0,5.94,159.0,6.82,12.17,47.59359,-54.27349
2022-04-23 08:04:01+00:00,154.0,7.8,154.0,8.94,12.17,47.59359,-54.27349
2022-04-23 08:14:00+00:00,148.0,6.26,150.0,7.02,12.09,47.59359,-54.27349
2022-04-23 08:24:00+00:00,161.0,6.08,166.0,7.2,12.09,47.59359,-54.27349
2022-04-23 08:34:00+00:00,163.0,5.72,164.0,6.36,12.09,47.59359,-54.27349
2022-04-23 08:44:00+00:00,170.0,5.88,166.0,6.8,12.09,47.59359,-54.27349
2022-04-23 08:54:00+00:00,184.0,4.56,184.0,5.15,12.09,47.59359,-54.27349
2022-04-23 09:04:00+00:00,179.0,4.02,181.0,4.98,12.09,47.59359,-54.27349
2022-04-23 09:14:00+00:00,171.0,6.1,174.0,7.35,12.09,47.59359,-54.27349
2022-04-23 09:24:00+00:00,169.0,6.87,166.0,7.56,12.09,47.59359,-54.27349
2022-04-23 09:34:00+00:00,170.0,6.32,167.0,7.75,12.09,47.59359,-54.27349
2022-04-23 09:44:00+00:00,160.0,8.05,165.0,10.1,12.09,47.59359,-54.27349
2022-04-23 09:54:00+00:00,161.0,7.01,161.0,8.08,12.09,47.59359,-54.27349
2022-04-23 10:04:00+00:00,153.0,7.11,158.0,7.82,12.09,47.59359,-54.27349
2022-04-23 10:14:00+00:00,158.0,6.7,154.0,7.71,12.41,47.59359,-54.27349
2022-04-23 10:24:00+00:00,158.0,6.51,152.0,7.9,12.41,47.59359,-54.27349
2022-04-23 10:34:00+00:00,158.0,6.37,162.0,7.15,12.41,47.59359,-54.27349
2022-04-23 10:44:00+00:00,157.0,7.17,157.0,8.19,12.41,47.59359,-54.27349
2022-04-23 10:54:00+00:00,147.0,8.29,151.0,9.41,12.41,47.59359,-54.27349
2022-04-23 11:04:00+00:00,145.0,8.76,146.0,9.74,12.41,47.59359,-54.27349
2022-04-23 11:14:01+00:00,144.0,8.27,144.0,9.02,12.81,47.59359,-54.27349
2022-04-23 11:24:01+00:00,145.0,8.7,149.0,9.93,12.81,47.59359,-54.27349
2022-04-23 11:34:01+00:00,144.0,8.9,140.0,9.75,12.81,47.59359,-54.27349
2022-04-23 11:44:01+00:00,145.0,8.44,145.0,9.33,12.81,47.59359,-54.27349
2022-04-23 11:54:01+00:00,151.0,9.28,157.0,10.2,12.81,47.59359,-54.27349
2022-04-23 12:04:01+00:00,148.0,9.75,154.0,11.15,12.81,47.59359,-54.27349
2022-04-23 12:14:01+00:00,145.0,9.38,143.0,10.49,13.37,47.59359,-54.27349
2022-04-23 12:24:01+00:00,144.0,8.87,143.0,9.95,13.37,47.59359,-54.27349
2022-04-23 12:34:01+00:00,146.0,8.14,135.0,9.16,13.37,47.59359,-54.27349
2022-04-23 12:44:01+00:00,144.0,7.28,146.0,8.19,13.37,47.59359,-54.27349
2022-04-23 12:54:01+00:00,139.0,6.7,134.0,8.54,13.37,47.59359,-54.27349
2022-04-23 13:04:01+00:00,147.0,7.51,133.0,9.47,13.37,47.59359,-54.27349
2022-04-23 13:14:00+00:00,150.0,7.58,150.0,8.89,13.13,47.59359,-54.27349
2022-04-23 13:24:00+00:00,148.0,6.08,133.0,8.29,13.13,47.59359,-54.27349
2022-04-23 13:34:00+00:00,146.0,5.8,149.0,7.46,13.13,47.59359,-54.27349
2022-04-23 13:44:00+00:00,148.0,5.94,136.0,8.22,13.13,47.59359,-54.27349
2022-04-23 13:54:00+00:00,150.0,6.59,133.0,8.63,13.13,47.59359,-54.27349
2022-04-23 14:04:00+00:00,133.0,5.37,140.0,6.4,13.13,47.59359,-54.27349
2022-04-23 14:14:00+00:00,135.0,5.25,124.0,6.51,13.37,47.59359,-54.27349
2022-04-23 14:24:00+00:00,130.0,4.62,117.0,6.3,13.37,47.59359,-54.27349
2022-04-23 14:34:00+00:00,132.0,5.87,120.0,7.47,13.37,47.59359,-54.27349
2022-04-23 14:44:00+00:00,136.0,7.77,137.0,8.48,13.37,47.59359,-54.27349
2022-04-23 14:54:00+00:00,142.0,6.56,143.0,7.73,13.37,47.59359,-54.27349
2022-04-23 15:04:00+00:00,128.0,5.06,117.0,6.77,13.37,47.59359,-54.27349
2022-04-23 15:14:00+00:00,134.0,5.62,120.0,6.91,13.53,47.59359,-54.27349
2022-04-23 15:24:00+00:00,145.0,5.22,145.0,7.65,13.53,47.59359,-54.27349
2022-04-23 15:34:00+00:00,139.0,6.03,143.0,7.29,13.53,47.59359,-54.27349
2022-04-23 15:44:00+00:00,137.0,5.85,138.0,6.54,13.53,47.59359,-54.27349
2022-04-23 15:54:00+00:00,143.0,6.9,142.0,7.98,13.53,47.59359,-54.27349
2022-04-23 16:04:00+00:00,143.0,6.43,147.0,8.49,13.53,47.59359,-54.27349
2022-04-23 16:14:01+00:00,148.0,6.86,146.0,8.01,13.53,47.59359,-54.27349
2022-04-23 16:24:01+00:00,145.0,7.07,161.0,7.68,13.53,47.59359,-54.27349
2022-04-23 16:34:01+00:00,141.0,6.72,144.0,7.98,13.53,47.59359,-54.27349
2022-04-23 16:44:01+00:00,145.0,7.11,146.0,7.97,13.53,47.59359,-54.27349
2022-04-23 16:54:01+00:00,148.0,6.96,149.0,8.3,13.53,47.59359,-54.27349
2022-04-23 17:04:01+00:00,152.0,6.89,149.0,8.59,13.53,47.59359,-54.27349
2022-04-23 18:14:00+00:00,151.0,8.73,155.0,9.96,13.6,47.59359,-54.27349
2022-04-23 18:24:00+00:00,147.0,8.08,152.0,10.05,13.6,47.59359,-54.27349
2022-04-23 18:34:00+00:00,149.0,8.13,140.0,10.05,13.6,47.59359,-54.27349
2022-04-23 18:44:00+00:00,136.0,7.74,137.0,8.95,13.6,47.59359,-54.27349
2022-04-23 18:54:00+00:00,133.0,7.77,134.0,8.52,13.6,47.59359,-54.27349
2022-04-23 19:04:00+00:00,144.0,7.45,138.0,9.03,13.6,47.59359,-54.27349
2022-04-23 19:14:00+00:00,155.0,9.71,154.0,11.12,13.37,47.59359,-54.27349
2022-04-23 19:24:00+00:00,149.0,8.45,144.0,10.58,13.37,47.59359,-54.27349
2022-04-23 19:34:00+00:00,145.0,6.95,137.0,8.7,13.37,47.59359,-54.27349
2022-04-23 19:44:00+00:00,179.0,6.89,148.0,9.03,13.37,47.59359,-54.27349
2022-04-23 19:54:00+00:00,220.0,6.32,228.0,7.39,13.37,47.59359,-54.27349
2022-04-23 20:04:00+00:00,210.0,4.44,230.0,6.46,13.37,47.59359,-54.27349
2022-04-23 20:14:01+00:00,186.0,3.31,183.0,3.68,13.13,47.59359,-54.27349
2022-04-23 20:24:01+00:00,182.0,3.52,213.0,5.34,13.13,47.59359,-54.27349
2022-04-23 20:34:01+00:00,217.0,5.63,223.0,7.34,13.13,47.59359,-54.27349
2022-04-23 20:44:01+00:00,195.0,3.96,226.0,5.33,13.13,47.59359,-54.27349
2022-04-23 20:54:01+00:00,186.0,3.89,183.0,4.51,13.13,47.59359,-54.27349
2022-04-23 21:04:01+00:00,175.0,3.54,180.0,4.04,13.13,47.59359,-54.27349
2022-04-23 21:14:01+00:00,181.0,3.62,182.0,3.84,12.65,47.59359,-54.27349
2022-04-23 21:24:01+00:00,169.0,5.67,143.0,7.48,12.65,47.59359,-54.27349
2022-04-23 21:34:01+00:00,178.0,5.2,179.0,5.86,12.65,47.59359,-54.27349
2022-04-23 21:44:01+00:00,144.0,5.16,133.0,6.68,12.65,47.59359,-54.27349
2022-04-23 21:54:01+00:00,136.0,4.62,127.0,6.13,12.65,47.59359,-54.27349
2022-04-23 22:04:01+00:00,124.0,6.6,121.0,7.67,12.65,47.59359,-54.27349
2022-04-23 22:14:01+00:00,126.0,7.04,123.0,8.14,12.41,47.59359,-54.27349
2022-04-23 22:24:01+00:00,130.0,6.38,128.0,7.48,12.41,47.59359,-54.27349
2022-04-23 22:34:01+00:00,131.0,6.24,123.0,7.8,12.41,47.59359,-54.27349
2022-04-23 22:44:01+00:00,126.0,5.95,129.0,7.61,12.41,47.59359,-54.27349
2022-04-23 22:54:01+00:00,117.0,5.35,118.0,6.67,12.41,47.59359,-54.27349
2022-04-23 23:04:01+00:00,111.0,3.81,95.0,5.98,12.41,47.59359,-54.27349
2022-04-23 23:14:01+00:00,113.0,3.43,74.0,5.08,12.33,47.59359,-54.27349
2022-04-23 23:24:01+00:00,88.0,2.47,115.0,3.98,12.33,47.59359,-54.27349
2022-04-23 23:34:01+00:00,120.0,4.78,122.0,6.66,12.33,47.59359,-54.27349
2022-04-23 23:44:01+00:00,127.0,5.72,123.0,7.44,12.33,47.59359,-54.27349
2022-04-23 23:54:01+00:00,115.0,2.77,108.0,3.93,12.33,47.59359,-54.27349
